Location: Poprad
(49.0500°N, 20.3000°E)
Time: 17:46:25
(UTC+02:00)

ITUPSAT 1 - Pass Details

Date: 27 April 2024
Orbit: 694 x 707 km, 98.5° (Epoch: 20 May)

Event Time Altitude Azimuth Distance (km) Brightness Sun altitude
Rises 00:14:58 0° 3° (N) 3,087 ? -26.9°
Reaches altitude 10° 00:17:45 10° 346° (NNW) 2,164 ? -26.9°
Maximum altitude 00:21:05 20° 301° (WNW) 1,606 ? -27.0°
Enters shadow 00:23:10 15° 269° (W) 1,836 ? -27.0°
